ATLAS 5 CENTAUR R/B (44483 NORAD) Tracking and Keplerian Element Data

This shows tracking and keplerian element data for the satellite.

Feedback or suggestion? Click here.




ElementValue
Catalog44483
NameATLAS 5 CENTAUR R/B
Epoch Orbit41
Epoch Day246.37731511
Epoch Year2019
RAAN298.1977
Inclination9.6361
Eccentricity0.3459542
Argument of Perigee183.3798
Mean Anonmoly173.3286
Mean Motion1.59358656
Decay Rate-1.21E-06
L11 44483U 19051C 19246.37731511 -.00000121 00000-0 10000-3 0 9998
L22 44483 9.6361 298.1977 3459542 183.3798 173.3286 1.59358656 417



Live tracking and technical data element details for ATLAS 5 CENTAUR R/B (NORAD 44483). ATLAS 5 CENTAUR R/B can be tracked NOW for your location showing map with azimuth and elevation plus other details from your city location.







IsCatalogInMostPopularTable: catalog: 44483, numindb: 223
Update: records affected: 1



GetName: 44483 ATLAS 5 CENTAUR R/B

Hit Count: updated at: Sun, 11 Jun 2023 00:15:48 GMT